Terminal Aerodrome Forecast
Issued by NWS Des Moines, IA

Home | Current Version | Previous Version | Text Only | Print | Product List | Glossary On
Versions: 1 2 3 4 5 6 7 8 9 10 11 12 13 14 15 16 17 18 19 20 21 22 23 24 25
000
FTUS43 KDMX 012333
TAFALO
TAF
KALO 012333Z 0200/0224 VRB04KT P6SM SKC
     FM020900 00000KT 2SM BR SCT004
      TEMPO 0209/0212 1/2SM FG SCT001
     FM021300 25004KT P6SM SCT008
     FM021700 17005KT P6SM VCSH BKN045=

USA.gov is the U.S. government's official web portal to all federal, state and local government web resources and services.